This demonstration page uses our WeatherBlox Daily Observations layout. Learn more.

Left ArrowRight Arrow

39.29038, -76.61219

Hourly Observations for November 8, 2016

Temp ( °F °C ) Dew Point ( °F °C ) Humidity (%) Winds ( mph kmh ) Pressure ( in mb ) Visibility ( mi km ) Precip ( " mm )
12:54 am 00:54 undefined 47 8.3 32 0 56 56 undefined N/A 30.33 1027 N/A 0.00 0.00
1:54 am 01:54 undefined 45 7.2 32 0 61 61 undefined N/A 30.32 1027 N/A 0.00 0.00
2:54 am 02:54 undefined 45 7.2 32 0 61 61 undefined N/A 30.29 1026 N/A 0.00 0.00
3:54 am 03:54 undefined 44 6.7 31 -0.6 60 60 undefined N/A 30.29 1026 N/A 0.00 0.00
4:54 am 04:54 undefined 44 6.7 31 -0.6 60 60 undefined N/A 30.28 1025 N/A 0.00 0.00
5:54 am 05:54 undefined 43 6.1 31 -0.6 63 63 undefined N/A 30.27 1025 N/A 0.00 0.00
6:54 am 06:54 undefined 43 6.1 31 -0.6 63 63 undefined N/A 30.26 1025 N/A 0.00 0.00
7:54 am 07:54 undefined 46 7.8 31 -0.6 56 56 undefined N/A 30.26 1025 N/A 0.00 0.00
8:54 am 08:54 undefined 52 11.1 33 0.6 49 49 undefined N/A 30.25 1024 N/A 0.00 0.00
9:54 am 09:54 undefined 59 15 33 0.6 38 38 undefined N/A 30.23 1024 N/A 0.00 0.00
10:54 am 10:54 undefined 63 17.2 32 0 31 31 undefined N/A 30.21 1023 N/A 0.00 0.00
11:54 am 11:54 undefined 67 19.4 30 -1.1 25 25 undefined N/A 30.17 1022 N/A 0.00 0.00
12:54 pm 12:54 undefined 69 20.6 29 -1.7 22 22 undefined N/A 30.14 1021 N/A 0.00 0.00
1:54 pm 13:54 undefined 68 20 30 -1.1 24 24 undefined N/A 30.10 1019 N/A 0.00 0.00
2:54 pm 14:54 undefined 70 21.1 31 -0.6 23 23 undefined N/A 30.08 1019 N/A 0.00 0.00
3:54 pm 15:54 undefined 69 20.6 33 0.6 26 26 undefined N/A 30.06 1018 N/A 0.00 0.00
4:54 pm 16:54 undefined 67 19.4 33 0.6 28 28 undefined N/A 30.06 1018 N/A 0.00 0.00
5:54 pm 17:54 undefined 64 17.8 34 1.1 33 33 undefined N/A 30.05 1018 N/A 0.00 0.00
6:54 pm 18:54 undefined 62 16.7 36 2.2 38 38 undefined N/A 30.04 1017 N/A 0.00 0.00
7:54 pm 19:54 undefined 60 15.6 37 2.8 42 42 undefined N/A 30.03 1017 N/A 0.00 0.00
8:54 pm 20:54 undefined 58 14.4 37 2.8 46 46 undefined N/A 30.02 1017 N/A 0.00 0.00
9:54 pm 21:54 undefined 58 14.4 36 2.2 44 44 undefined N/A 30.00 1016 N/A 0.00 0.00
10:54 pm 22:54 undefined 57 13.9 37 2.8 47 47 undefined N/A 29.98 1015 N/A 0.00 0.00
11:54 pm 23:54 undefined 56 13.3 38 3.3 51 51 undefined N/A 29.96 1015 N/A 0.00 0.00

Powered by AerisWeather